Content
SEND FEEDBACK

Daily
Averages
Monthly
Summary
United States of America

BECKS, UTAH


Home > North America > United States > Utah
Elevation: 4453 feet     Latitude: 40 46N     Longitude: 111 53W

WEATHER
 
SELECT A DAY
Number of Records: 355,124;   Date Range: 1/1/95 - 7/20/14
 
SHARE

PRINT THIS DATA

[ ← Previous Day ]
WEATHER ALMANAC - FEBRUARY 13, 2013
[ Next Day → ]
[ °C ]   °F
Weather ElementAverageHighLow
Temperature31.3 °F36 °F (12:53 pm)25 °F (6:53 am)
Dewpoint24.3 °F27 °F (2:53 pm)21 °F (1:53 am)
Humidity75.2 %88 % (6:53 am)61 % (11:53 am)
Barometer30.35 in30.42 in (1:53 am)30.28 in (11:53 pm)
Wind Speed4.7 mph9.2 mph (9:53 am)
Weather ElementAverage
Visibility9.9 mi
Wind DirectionSSW (199.1 °)

Weather ElementTotal
Precipitation---
Heating Degree Days34.5 (Base 65)
Averaged from 23 records on February 13, 2013
WEATHER CONDITIONS BREAKOUT
WIND DIRECTION BREAKOUT
WEATHER BY HOUR - FEBRUARY 13, 2013
[ °C ]   °F
Local TimeTemperatureDewpointHumidityBarometerVisibilityWind DirectionWind SpeedGust SpeedPrecipitationEventsConditions
1:53 AM28.0 °F21.0 °F75 %30.42 in10.0 miSSE (160°)5.8 mphOvercast
2:53 AM28.0 °F21.9 °F78 %30.40 in10.0 miSE (130°)4.6 mphOvercast
3:53 AM28.0 °F21.9 °F78 %30.37 in10.0 miSSE (160°)8.1 mphOvercast
4:53 AM28.4 °F21.2 °F74 %30.30 in10.0 miSE (130°)8.1 mphMostly Cloudy
5:53 AM28.0 °F21.9 °F78 %30.39 in10.0 miEast (100°)4.6 mphMostly Cloudy
6:53 AM25.0 °F21.9 °F88 %30.42 in10.0 miNNW (340°)6.9 mphOvercast
7:53 AM26.1 °F21.0 °F81 %30.41 in10.0 miCalmMostly Cloudy
8:53 AM28.0 °F21.9 °F78 %30.42 in10.0 miSouth (190°)4.6 mphMostly Cloudy
9:53 AM30.0 °F21.9 °F72 %30.40 in10.0 miSSE (160°)9.2 mphMostly Cloudy
10:53 AM32.0 °F23.0 °F69 %30.40 in10.0 miSE (140°)9.2 mphMostly Cloudy
11:53 AM35.1 °F23.0 °F61 %30.38 in10.0 miSE (130°)4.6 mphMostly Cloudy
12:53 PM36.0 °F25.0 °F64 %30.35 in10.0 miWNW (290°)3.5 mphOvercast
1:53 PM36.0 °F25.0 °F64 %30.33 in10.0 miCalmOvercast
2:53 PM35.1 °F27.0 °F72 %30.32 in10.0 miNorth (360°)8.1 mphOvercast
3:53 PM34.0 °F27.0 °F75 %30.31 in10.0 miNorth (350°)5.8 mphOvercast
4:53 PM35.1 °F27.0 °F72 %30.30 in10.0 miCalmOvercast
5:53 PM34.0 °F27.0 °F75 %30.29 in10.0 miNorth (350°)3.5 mphOvercast
6:53 PM33.1 °F26.1 °F75 %30.31 in10.0 miWest (280°)4.6 mphMostly Cloudy
7:53 PM33.1 °F26.1 °F75 %30.30 in10.0 miNorth (360°)4.6 mphOvercast
8:53 PM32.0 °F26.1 °F79 %30.31 in10.0 miNorth (350°)4.6 mphMostly Cloudy
9:53 PM32.0 °F27.0 °F82 %30.30 in9.0 miNW (320°)3.5 mphMostly Cloudy
10:53 PM32.0 °F27.0 °F82 %30.30 in9.0 miWest (280°)3.5 mphOvercast
11:53 PM32.0 °F27.0 °F82 %30.28 in9.0 miCalmOvercast
Hourly data recorded from KSLC, located miles away from Becks, Utah







STORIES FROM OUR PARTNERS